SL-3 R/B (19046 NORAD) Tracking and Keplerian Element Data

This shows tracking and keplerian element data for the satellite.

Feedback or suggestion? Click here.




ElementValue
Catalog19046
NameSL-3 R/B
Epoch Orbit82369
Epoch Day15.90892512
Epoch Year2022
RAAN21.7002
Inclination97.3868
Eccentricity0.0037971
Argument of Perigee40.5231
Mean Anonmoly319.8811
Mean Motion15.03174255
Decay Rate7.64E-06
L11 19046U 88032B 22015.90892512 .00000764 00000+0 59967-4 0 9993
L22 19046 97.3868 21.7002 0037971 40.5231 319.8811 15.03174255823699

Live tracking and technical data element details for SL-3 R/B (NORAD 19046). SL-3 R/B can be tracked NOW for your location showing map with azimuth and elevation plus other details from your city location.

Track the satellite on the map from your city or location and see movement details for azimuth, elevation, latitude, longitude, range, height, and movement on the map or in text.







IsCatalogInMostPopularTable: catalog: 19046, numindb: 354
Update: records affected: 1



GetName: 19046 SL-3 R/B

Hit Count: updated at: Mon, 17 Jan 2022 00:50:26 GMT